Location: Bartshausen
(51.8454°N, 9.8167°E)
Time: 02:15:40
(UTC+00:00)

Cosmos 1943 Rocket - Visible Passes

Search period start: 15 February 2026 00:00
Search period end: 25 February 2026 00:00
Orbit: 811 x 842 km, 71.0° (Epoch: 13 February)

Date Brightness Start Highest point End Pass type
(mag) Time Alt. Az. Time Alt. Az. Time Alt. Az.
15 Feb 4.8 02:18:38 12° N 02:18:38 12° N 02:19:35 10° N visible
15 Feb 4.6 04:02:05 10° N 04:03:39 11° N 04:05:14 10° NNE visible
15 Feb 4.1 05:45:10 10° NNW 05:49:37 23° NE 05:54:03 10° E visible
16 Feb 4.8 01:59:17 11° N 01:59:17 11° N 02:00:00 10° N visible
16 Feb 4.7 03:42:28 10° N 03:43:50 11° N 03:45:12 10° NNE visible
16 Feb 4.2 05:25:35 10° NNW 05:29:52 22° NE 05:34:09 10° E visible
17 Feb 4.9 01:39:56 11° N 01:39:56 11° N 01:40:25 10° N visible
17 Feb 4.7 03:22:50 10° N 03:24:01 11° N 03:25:12 10° NNE visible
17 Feb 4.3 05:06:00 10° NNW 05:10:07 20° NNE 05:14:14 10° E visible
18 Feb 5.0 01:20:34 11° N 01:20:34 11° N 01:20:51 10° N visible
18 Feb 4.7 03:03:10 10° N 03:04:11 10° N 03:05:13 10° NNE visible
18 Feb 4.4 04:46:25 10° NNW 04:50:21 19° NNE 04:54:18 10° ENE visible
19 Feb 5.1 01:01:12 10° N 01:01:12 10° N 01:01:16 10° N visible
19 Feb 4.8 02:43:27 10° N 02:44:21 10° N 02:45:17 10° NNE visible
19 Feb 4.5 04:26:50 10° NNW 04:30:35 18° NNE 04:34:21 10° ENE visible
20 Feb 4.8 02:23:39 10° N 02:24:32 10° N 02:25:24 10° N visible
20 Feb 4.6 04:07:15 10° NNW 04:10:49 17° NNE 04:14:23 10° ENE visible
20 Feb 3.1 05:50:26 10° NNW 05:55:55 50° NE 06:01:23 10° SE visible
21 Feb 4.8 02:03:53 10° N 02:04:42 10° N 02:05:36 10° N visible
21 Feb 4.6 03:47:39 10° NNW 03:51:02 16° NNE 03:54:24 10° ENE visible
21 Feb 3.2 05:30:50 10° NNW 05:36:14 46° NE 05:41:39 10° ESE visible
22 Feb 4.9 01:44:29 10° N 01:44:52 10° N 01:45:52 10° N visible
22 Feb 4.7 03:28:05 10° N 03:31:15 15° NNE 03:34:25 10° ENE visible
22 Feb 3.4 05:11:13 10° NNW 05:16:33 42° NE 05:21:53 10° ESE visible
23 Feb 4.9 01:25:02 11° N 01:25:02 11° N 01:26:11 10° N visible
23 Feb 4.7 03:08:30 10° N 03:11:27 14° NNE 03:14:25 10° NE visible
23 Feb 3.6 04:51:37 10° NNW 04:56:51 38° NE 05:02:06 10° ESE visible
24 Feb 5.0 01:05:35 11° N 01:05:35 11° N 01:06:33 10° N visible
24 Feb 4.8 02:48:54 10° N 02:51:39 14° NNE 02:54:24 10° NE visible
24 Feb 3.7 04:32:01 10° NNW 04:37:09 35° NE 04:42:18 10° ESE visible
